• In Uzbekistan
  • List of Countries
  • For 7 days
  • Water Temperature
  • Satellite Maps
  • Weather Map
  • Weather Widgets
  • user-avatar
    Login

    Hourly Weather Paphos

    Today, 22 July, Monday

    Time Temperature Precipitation Wind Pressure Humidity
    00:00 +28°C° 0 mm 5 mps 754 mmHg 55%
    01:00 +28°C° 0 mm 5 mps 754 mmHg 55%
    02:00 +28°C° 0 mm 5 mps 754 mmHg 53%
    03:00 +28°C° 0 mm 5 mps 753 mmHg 55%
    04:00 +28°C° 0 mm 5 mps 753 mmHg 57%
    05:00 +27°C° 0 mm 5 mps 753 mmHg 58%
    06:00 +30°C° 0 mm 4 mps 753 mmHg 51%
    07:00 +33°C° 0 mm 4 mps 753 mmHg 44%
    08:00 +35°C° 0 mm 3 mps 754 mmHg 36%
    09:00 +35°C° 0 mm 3 mps 754 mmHg 37%
    10:00 +36°C° 0 mm 3 mps 754 mmHg 38%
    11:00 +36°C° 0 mm 3 mps 754 mmHg 40%
    12:00 +36°C° 0 mm 3 mps 754 mmHg 40%
    13:00 +35°C° 0 mm 3 mps 754 mmHg 40%
    14:00 +35°C° 0 mm 3 mps 754 mmHg 41%
    15:00 +35°C° 0 mm 4 mps 753 mmHg 42%
    16:00 +34°C° 0 mm 4 mps 753 mmHg 43%
    17:00 +34°C° 0 mm 4 mps 753 mmHg 44%
    18:00 +33°C° 0 mm 4 mps 753 mmHg 48%
    19:00 +30°C° 0 mm 5 mps 753 mmHg 53%
    20:00 +29°C° 0 mm 5 mps 753 mmHg 57%
    21:00 +29°C° 0 mm 5 mps 753 mmHg 58%
    22:00 +29°C° 0 mm 6 mps 753 mmHg 58%
    23:00 +29°C° 0 mm 6 mps 753 mmHg 58%

    Tomorrow, 23 July, Tuesday

    Time Temperature Precipitation Wind Pressure Humidity
    00:00 +28°C° 0 mm 6 mps 752 mmHg 62%
    01:00 +28°C° 0 mm 6 mps 752 mmHg 67%
    02:00 +27°C° 0 mm 6 mps 752 mmHg 71%
    03:00 +27°C° 0 mm 5 mps 751 mmHg 72%
    04:00 +26°C° 0 mm 4 mps 751 mmHg 73%
    05:00 +26°C° 0 mm 4 mps 751 mmHg 74%
    06:00 +28°C° 0 mm 4 mps 751 mmHg 67%
    07:00 +29°C° 0 mm 3 mps 752 mmHg 61%
    08:00 +31°C° 0 mm 3 mps 752 mmHg 54%
    09:00 +33°C° 0 mm 3 mps 752 mmHg 53%
    10:00 +33°C° 0 mm 3 mps 752 mmHg 52%
    11:00 +34°C° 0 mm 3 mps 752 mmHg 51%
    12:00 +34°C° 0 mm 3 mps 752 mmHg 51%
    13:00 +34°C° 0 mm 4 mps 752 mmHg 51%
    14:00 +34°C° 0 mm 4 mps 752 mmHg 51%
    15:00 +34°C° 0 mm 3 mps 752 mmHg 51%
    16:00 +33°C° 0 mm 3 mps 752 mmHg 51%
    17:00 +33°C° 0 mm 3 mps 752 mmHg 51%
    18:00 +31°C° 0 mm 3 mps 752 mmHg 54%
    19:00 +30°C° 0 mm 4 mps 752 mmHg 58%
    20:00 +29°C° 0 mm 4 mps 752 mmHg 61%
    21:00 +28°C° 0 mm 5 mps 752 mmHg 61%
    22:00 +28°C° 0 mm 5 mps 752 mmHg 61%
    23:00 +28°C° 0 mm 6 mps 752 mmHg 62%

    Day after tomorrow, 24 July, Wednesday

    Time Temperature Precipitation Wind Pressure Humidity
    00:00 +28°C° 0 mm 6 mps 752 mmHg 63%
    01:00 +27°C° 0 mm 6 mps 752 mmHg 65%
    02:00 +27°C° 0 mm 6 mps 751 mmHg 66%
    03:00 +27°C° 0 mm 5 mps 751 mmHg 66%
    04:00 +27°C° 0 mm 5 mps 751 mmHg 66%
    05:00 +27°C° 0 mm 4 mps 751 mmHg 65%
    06:00 +28°C° 0 mm 4 mps 752 mmHg 61%
    07:00 +29°C° 0 mm 4 mps 752 mmHg 57%
    08:00 +31°C° 0 mm 3 mps 752 mmHg 53%
    09:00 +31°C° 0 mm 3 mps 752 mmHg 53%
    10:00 +32°C° 0 mm 4 mps 753 mmHg 53%
    11:00 +33°C° 0 mm 4 mps 753 mmHg 53%
    12:00 +33°C° 0 mm 4 mps 753 mmHg 53%
    13:00 +33°C° 0 mm 4 mps 753 mmHg 54%
    14:00 +33°C° 0 mm 5 mps 753 mmHg 54%
    15:00 +32°C° 0 mm 5 mps 753 mmHg 55%
    16:00 +32°C° 0 mm 4 mps 752 mmHg 56%
    17:00 +32°C° 0 mm 4 mps 752 mmHg 57%
    18:00 +29°C° 0 mm 4 mps 752 mmHg 63%
    19:00 +28°C° 0 mm 3 mps 752 mmHg 70%
    20:00 +27°C° 0 mm 3 mps 752 mmHg 77%
    21:00 +27°C° 0 mm 3 mps 753 mmHg 78%
    22:00 +26°C° 0 mm 3 mps 753 mmHg 78%
    23:00 +26°C° 0 mm 3 mps 753 mmHg 78%

    25 July, Thursday

    Time Temperature Precipitation Wind Pressure Humidity
    00:00 +26°C° 0 mm 3 mps 753 mmHg 78%
    01:00 +26°C° 0 mm 3 mps 753 mmHg 79%
    02:00 +26°C° 0 mm 3 mps 753 mmHg 79%
    03:00 +25°C° 0 mm 3 mps 753 mmHg 79%
    04:00 +25°C° 0 mm 3 mps 753 mmHg 78%
    05:00 +25°C° 0 mm 2 mps 753 mmHg 77%
    06:00 +26°C° 0 mm 2 mps 753 mmHg 73%
    07:00 +28°C° 0 mm 3 mps 754 mmHg 69%
    08:00 +30°C° 0 mm 3 mps 754 mmHg 64%
    09:00 +30°C° 0 mm 3 mps 754 mmHg 63%
    10:00 +30°C° 0 mm 3 mps 754 mmHg 61%
    11:00 +31°C° 0 mm 3 mps 755 mmHg 60%
    12:00 +32°C° 0 mm 4 mps 754 mmHg 58%
    13:00 +32°C° 0 mm 4 mps 754 mmHg 56%
    14:00 +33°C° 0 mm 4 mps 754 mmHg 54%
    15:00 +31°C° 0 mm 3 mps 754 mmHg 55%
    16:00 +31°C° 0 mm 3 mps 754 mmHg 55%
    17:00 +31°C° 0 mm 3 mps 753 mmHg 56%
    18:00 +30°C° 0 mm 3 mps 753 mmHg 61%
    19:00 +29°C° 0 mm 3 mps 753 mmHg 67%
    20:00 +28°C° 0 mm 3 mps 753 mmHg 73%
    21:00 +28°C° 0 mm 4 mps 753 mmHg 71%
    22:00 +28°C° 0 mm 4 mps 754 mmHg 68%
    23:00 +28°C° 0 mm 5 mps 754 mmHg 66%

    26 July, Friday

    Time Temperature Precipitation Wind Pressure Humidity
    00:00 +28°C° 0 mm 4 mps 753 mmHg 64%
    01:00 +27°C° 0 mm 4 mps 753 mmHg 62%
    02:00 +27°C° 0 mm 4 mps 753 mmHg 60%
    03:00 +27°C° 0 mm 4 mps 753 mmHg 60%
    04:00 +27°C° 0 mm 4 mps 753 mmHg 61%
    05:00 +27°C° 0 mm 4 mps 753 mmHg 62%
    06:00 +28°C° 0 mm 4 mps 753 mmHg 58%
    07:00 +30°C° 0 mm 3 mps 753 mmHg 54%
    08:00 +33°C° 0 mm 3 mps 753 mmHg 50%
    09:00 +33°C° 0 mm 3 mps 753 mmHg 53%
    10:00 +33°C° 0 mm 4 mps 753 mmHg 55%
    11:00 +33°C° 0 mm 4 mps 753 mmHg 58%
    12:00 +33°C° 0 mm 4 mps 753 mmHg 57%
    13:00 +33°C° 0 mm 5 mps 753 mmHg 55%
    14:00 +33°C° 0 mm 5 mps 753 mmHg 54%
    15:00 +33°C° 0 mm 5 mps 753 mmHg 54%
    16:00 +33°C° 0 mm 5 mps 752 mmHg 55%
    17:00 +32°C° 0 mm 5 mps 752 mmHg 55%
    18:00 +30°C° 0 mm 5 mps 752 mmHg 62%
    19:00 +29°C° 0 mm 5 mps 752 mmHg 68%
    20:00 +28°C° 0 mm 5 mps 752 mmHg 75%
    21:00 +28°C° 0 mm 5 mps 752 mmHg 74%
    22:00 +27°C° 0 mm 5 mps 752 mmHg 74%
    23:00 +27°C° 0 mm 5 mps 752 mmHg 74%

    27 July, Saturday

    Time Temperature Precipitation Wind Pressure Humidity
    00:00 +27°C° 0 mm 5 mps 752 mmHg 69%
    01:00 +27°C° 0 mm 5 mps 752 mmHg 65%
    02:00 +27°C° 0 mm 5 mps 751 mmHg 61%
    03:00 +27°C° 0 mm 4 mps 751 mmHg 60%
    04:00 +27°C° 0 mm 4 mps 751 mmHg 59%
    05:00 +27°C° 0 mm 4 mps 751 mmHg 58%
    06:00 +28°C° 0 mm 4 mps 751 mmHg 57%
    07:00 +30°C° 0 mm 4 mps 751 mmHg 57%
    08:00 +32°C° 0 mm 4 mps 751 mmHg 56%
    09:00 +32°C° 0 mm 4 mps 751 mmHg 58%
    10:00 +32°C° 0 mm 4 mps 752 mmHg 60%
    11:00 +32°C° 0 mm 4 mps 752 mmHg 63%
    12:00 +32°C° 0 mm 4 mps 752 mmHg 61%
    13:00 +32°C° 0 mm 4 mps 751 mmHg 59%
    14:00 +33°C° 0 mm 4 mps 751 mmHg 57%
    15:00 +33°C° 0 mm 5 mps 751 mmHg 56%
    16:00 +32°C° 0 mm 5 mps 751 mmHg 56%
    17:00 +32°C° 0 mm 5 mps 750 mmHg 55%
    18:00 +30°C° 0 mm 5 mps 750 mmHg 63%
    19:00 +29°C° 0 mm 5 mps 750 mmHg 71%
    20:00 +27°C° 0 mm 5 mps 750 mmHg 79%
    21:00 +27°C° 0 mm 5 mps 750 mmHg 80%
    22:00 +27°C° 0 mm 5 mps 750 mmHg 80%
    23:00 +27°C° 0 mm 5 mps 750 mmHg 80%
    Show more